Weather History for Burlington, CO

Change the Weather History Date:

Wednesday, February 13, 2013

  Actual Average Record
Temperature  
Mean Temperature 33 °F 31 °F  
Max Temperature 53 °F 44 °F 77 °F (1954)
Min Temperature 13 °F 18 °F -8 °F (1948)
Degree Days  
Heating Degree Days 33    
Moisture  
Dew Point 10 °F    
Average Humidity 44    
Maximum Humidity 71    
Minimum Humidity 19    
Precipitation  
Precipitation 0.00 in 0.02 in 0.37 in (1960)
Month to date precipitation 0.00 0.16  
Year to date precipitation 0.02 0.54  
Sea Level Pressure  
Sea Level Pressure 29.99 in    
Wind  
Wind Speed 11 mph (WNW)    
Max Wind Speed 22 mph    
Max Gust Speed 32 mph    
Visibility 10 miles    
Events      
T = Trace of Precipitation, MM = Missing Value Source: NWS Daily Summary

Daily Weather History Graph

Daily Weather History Graph

Search for Another Location

Airport:

Trip Planner

Search our weather history database for the weather conditions in past years. The results will help you decide how hot, cold, wet, or windy it might be!

Date:

Astronomy

Feb. 13, 2013 Rise Set
Actual Time 6:42 AM MST 5:24 PM MST
Civil Twilight 6:15 AM MST 5:51 PM MST
Nautical Twilight 5:44 AM MST 6:23 PM MST
Astronomical Twilight 5:12 AM MST 6:54 PM MST
Moon 8:15 AM MST (2/13) 9:27 PM MST (2/13)
Length of Visible Light 11h 36m
Length of Day
10h 41m
Waxing Crescent, 14% of the Moon is Illuminated
Feb 13
Waxing Crescent
Feb 17
First Quarter
Feb 25
Full
Mar 4
Last Quarter
Mar 11
New

Hourly Weather History & Observations

Time (MST) Temp. Windchill Dew Point Humidity Pressure Visibility Wind Dir Wind Speed Gust Speed Precip Events Conditions
12:53 AM 18.0 °F 6.1 °F 7.0 °F 62% 30.06 in 10.0 mi WNW 10.4 mph - N/A   Clear
1:53 AM 19.9 °F 11.1 °F 9.0 °F 62% 30.04 in 10.0 mi NW 6.9 mph - N/A   Clear
2:53 AM 16.0 °F 2.9 °F 6.1 °F 65% 30.03 in 10.0 mi West 11.5 mph - N/A   Clear
3:53 AM 12.9 °F 0.7 °F 5.0 °F 71% 30.02 in 10.0 mi West 9.2 mph - N/A   Clear
4:53 AM 16.0 °F 5.3 °F 7.0 °F 68% 30.02 in 10.0 mi West 8.1 mph - N/A   Clear
5:53 AM 15.1 °F 1.8 °F 6.1 °F 68% 30.04 in 10.0 mi WSW 11.5 mph - N/A   Clear
6:53 AM 15.1 °F 3.3 °F 6.1 °F 68% 30.04 in 10.0 mi WSW 9.2 mph - N/A   Clear
7:53 AM 27.0 °F 17.3 °F 10.0 °F 49% 30.04 in 10.0 mi West 10.4 mph - N/A   Clear
8:53 AM 39.9 °F 32.9 °F 10.0 °F 29% 30.01 in 10.0 mi WSW 11.5 mph - N/A   Clear
9:53 AM 45.0 °F 38.9 °F 10.9 °F 25% 29.99 in 10.0 mi NNW 12.7 mph 18.4 mph N/A   Clear
10:53 AM 48.0 °F - 12.0 °F 24% 29.98 in 10.0 mi NNW 12.7 mph 21.9 mph N/A   Clear
11:53 AM 50.0 °F - 12.0 °F 22% 29.94 in 10.0 mi NNW 17.3 mph 21.9 mph N/A   Clear
12:53 PM 50.0 °F - 12.0 °F 22% 29.93 in 10.0 mi North 11.5 mph - N/A   Clear
1:53 PM 52.0 °F - 12.0 °F 20% 29.91 in 10.0 mi North 10.4 mph - N/A   Clear
2:53 PM 52.0 °F - 10.0 °F 19% 29.91 in 10.0 mi NNW 21.9 mph 31.1 mph N/A   Clear
3:53 PM 52.0 °F - 10.0 °F 19% 29.91 in 10.0 mi NW 20.7 mph 32.2 mph N/A   Clear
4:53 PM 48.9 °F - 10.9 °F 22% 29.92 in 10.0 mi NW 18.4 mph - N/A   Clear
5:53 PM 37.0 °F 31.6 °F 7.0 °F 29% 29.98 in 10.0 mi WNW 6.9 mph - N/A   Clear
7:53 PM 30.0 °F 22.4 °F 9.0 °F 41% 30.02 in 10.0 mi NW 8.1 mph - N/A   Clear
8:53 PM 28.0 °F 20.0 °F 10.9 °F 49% 30.01 in 10.0 mi NW 8.1 mph - N/A   Clear
9:53 PM 25.0 °F 15.5 °F 10.0 °F 53% 30.01 in 10.0 mi WNW 9.2 mph - N/A   Clear
10:53 PM 32.0 °F 22.5 °F 16.0 °F 52% 30.01 in 10.0 mi NW 12.7 mph - N/A   Clear
11:53 PM 27.0 °F 19.5 °F 16.0 °F 63% 30.02 in 10.0 mi NW 6.9 mph - N/A   Clear